GW5644 Weather Reports


time (UTC)temp
C
wind
direction
speed
KPH
gust
KPH
rain 1hr
cm
rain 24hr
cm
rain mn
cm
humidity
%
barometer
mb
20260508013020 20 231 4.8 14.5 0.00 0.00 0.00 69 1014.0
20260508011527 21 192 6.4 14.5 0.00 0.00 0.00 67 1014.0
20260508010035 21 182 4.8 12.9 0.00 0.00 0.00 65 1014.0
20260508004520 21 244 6.4 14.5 0.00 0.00 0.00 66 1013.9
20260508003019 21 219 6.4 11.3 0.00 0.00 0.00 63 1013.9
20260508001521 22 221 4.8 14.5 0.00 0.00 0.00 62 1013.8
20260508000024 22 250 4.8 14.5 0.00 0.00 0.00 63 1013.9
20260507234520 23 273 3.2 9.7 0.00 0.00 0.00 61 1013.8
20260507233012 22 277 4.8 12.9 0.00 0.00 0.00 61 1013.8
20260507231521 23 233 4.8 12.9 0.00 0.00 0.00 60 1013.9
20260507230036 23 264 3.2 12.9 0.00 0.00 0.00 59 1013.9
20260507224527 23 186 4.8 14.5 0.00 0.00 0.00 58 1014.0
20260507223042 23 275 4.8 14.5 0.00 0.00 0.00 60 1014.1
20260507221517 23 214 8.0 16.1 0.00 0.00 0.00 59 1014.1
20260507220018 23 194 4.8 19.3 0.00 0.00 0.00 61 1014.3
20260507214523 23 248 4.8 16.1 0.00 0.00 0.00 60 1014.4
20260507213026 23 196 6.4 14.5 0.00 0.00 0.00 58 1014.6
20260507211520 23 199 4.8 14.5 0.00 0.00 0.00 59 1014.6
20260507210021 23 184 3.2 12.9 0.00 0.00 0.00 58 1014.7
20260507204523 23 198 4.8 12.9 0.00 0.00 0.00 60 1015.1
20260507203034 23 250 4.8 12.9 0.00 0.00 0.00 60 1015.1
20260507201521 23 277 3.2 11.3 0.00 0.00 0.00 61 1015.2
20260507200044 23 275 6.4 14.5 0.00 0.00 0.00 59 1015.4
20260507194520 23 221 6.4 16.1 0.00 0.00 0.00 60 1015.5
20260507193039 23 352 3.2 14.5 0.00 0.00 0.00 59 1015.5
20260507191525 23 265 1.6 9.7 0.00 0.00 0.00 60 1015.6
20260507190017 22 205 3.2 14.5 0.00 0.00 0.00 62 1015.8
20260507184520 23 219 6.4 12.9 0.00 0.00 0.00 61 1016.1
20260507183009 23 229 1.6 8.0 0.00 0.00 0.00 59 1016.2
20260507181512 22 267 3.2 11.3 0.00 0.00 0.00 61 1016.2
20260507180016 22 186 4.8 12.9 0.00 0.00 0.00 63 1016.3
20260507174520 21 212 3.2 6.4 0.00 0.00 0.00 63 1016.4
20260507173021 21 209 3.2 9.7 0.00 0.00 0.00 65 1016.5
20260507171508 20 214 1.6 9.7 0.00 0.00 0.00 67 1016.5
20260507170010 20 213 0.0 4.8 0.00 0.00 0.00 67 1016.5
20260507164516 19 206 1.6 6.4 0.00 0.00 0.00 71 1016.7
20260507163020 19 194 3.2 6.4 0.00 0.00 0.00 71 1016.7
20260507161529 18 195 0.0 4.8 0.00 0.00 0.00 73 1016.8
20260507160010 18 220 1.6 6.4 0.00 0.00 0.00 74 1016.9
20260507154512 18 189 1.6 3.2 0.00 0.00 0.00 76 1016.9
20260507153020 17 136 0.0 4.8 0.00 0.00 0.00 78 1017.0
20260507151525 17 215 1.6 4.8 0.00 0.00 0.00 78 1017.0
20260507150007 16 187 1.6 4.8 0.00 0.00 0.00 79 1017.2
20260507144510 16 173 0.0 3.2 0.00 0.00 0.00 81 1017.1
20260507143020 15 207 3.2 3.2 0.00 0.00 0.00 82 1017.0
20260507141521 15 212 1.6 3.2 0.00 0.00 0.00 82 1016.8
20260507140025 14 109 0.0 3.2 0.00 0.00 0.00 86 1016.6
20260507134514 12 109 0.0 0.0 0.00 0.00 0.00 90 1016.5
20260507133014 11 109 0.0 0.0 0.00 0.00 0.00 90 1016.4
20260507131525 11 109 0.0 0.0 0.00 0.00 0.00 89 1016.1
20260507130040 12 109 0.0 0.0 0.00 0.00 0.00 89 1016.1
20260507124526 12 109 0.0 0.0 0.00 0.00 0.00 89 1015.9
20260507123011 12 109 0.0 0.0 0.00 0.00 0.00 89 1015.9
20260507121522 12 109 0.0 0.0 0.00 0.00 0.00 89 1016.0
20260507120033 12 109 0.0 0.0 0.00 0.00 0.00 89 1016.0
20260507114523 12 109 0.0 0.0 0.00 0.00 0.00 88 1016.0
20260507113028 12 109 0.0 0.0 0.00 0.00 0.00 88 1016.1
20260507111519 12 109 0.0 0.0 0.00 0.00 0.00 87 1016.1
20260507110028 12 109 0.0 0.0 0.00 0.00 0.00 87 1016.2
20260507104524 12 109 0.0 0.0 0.00 0.00 0.00 86 1016.2
20260507103028 12 109 0.0 0.0 0.00 0.00 0.00 85 1016.4
20260507101515 13 109 0.0 0.0 0.00 0.00 0.00 85 1016.3
20260507100023 13 109 0.0 0.0 0.00 0.00 0.00 85 1016.4
20260507094523 13 109 0.0 0.0 0.00 0.00 0.00 84 1016.6
20260507093025 13 109 0.0 1.6 0.00 0.00 0.00 84 1016.7
20260507091526 13 109 0.0 1.6 0.00 0.00 0.00 83 1016.9
20260507090019 13 109 0.0 0.0 0.00 0.00 0.00 83 1017.1
20260507084520 13 109 0.0 0.0 0.00 0.00 0.00 83 1017.2
20260507083029 14 109 0.0 0.0 0.00 0.00 0.00 82 1017.4
20260507081528 14 109 0.0 0.0 0.00 0.00 0.00 82 1017.4
20260507080030 14 109 0.0 1.6 0.00 0.00 0.00 83 1017.5
20260507074519 14 109 0.0 0.0 0.00 0.00 0.00 82 1017.4
20260507073022 15 109 0.0 0.0 0.00 0.00 0.00 81 1017.5
20260507071523 15 109 0.0 0.0 0.00 0.00 0.00 80 1017.5
20260507070036 15 109 0.0 0.0 0.00 0.00 0.00 80 1017.5
20260507064536 15 109 0.0 0.0 0.00 0.00 0.00 79 1017.7
20260507063029 15 109 0.0 0.0 0.00 0.00 0.00 78 1017.7
20260507061526 15 109 0.0 0.0 0.00 0.00 0.00 77 1017.7
20260507060028 16 109 0.0 0.0 0.00 0.00 0.00 77 1017.8
20260507054526 16 109 0.0 3.2 0.00 0.00 0.00 76 1017.7
20260507053018 16 212 0.0 0.0 0.00 0.00 0.00 76 1017.7
20260507051526 16 212 0.0 3.2 0.00 0.00 0.00 76 1017.5
20260507050036 16 204 0.0 0.0 0.00 0.00 0.00 74 1017.4
20260507044510 17 204 0.0 0.0 0.00 0.00 0.00 74 1017.5
20260507043018 17 204 0.0 3.2 0.00 0.00 0.00 73 1017.5
20260507041530 17 196 1.6 3.2 0.00 0.00 0.00 73 1017.4
20260507040025 17 190 0.0 3.2 0.00 0.00 0.00 72 1017.3
20260507034530 17 190 1.6 6.4 0.00 0.00 0.00 71 1017.1
20260507033016 18 179 0.0 4.8 0.00 0.00 0.00 70 1017.0
20260507031529 18 219 1.6 6.4 0.00 0.00 0.00 69 1016.8
20260507030022 18 196 1.6 6.4 0.00 0.00 0.00 69 1016.4
20260507024530 18 217 0.0 4.8 0.00 0.00 0.00 68 1016.4
20260507023028 18 209 3.2 6.4 0.00 0.00 0.00 67 1016.3
20260507021512 19 195 4.8 11.3 0.00 0.00 0.00 65 1016.2
20260507020026 20 205 1.6 6.4 0.00 0.00 0.00 62 1016.1
20260507014538 20 222 3.2 11.3 0.00 0.00 0.00 60 1016.0